Atmospheric History
12/06/2017 18:30  to  12/7/2017 18:30
Change End Date:
To complete the export process:
1) Select all of the data below
2) Copy the data to the clipboard
3) Open a word processor such as Notepad
4) Paste the data into the word processor
5) Save the file

Date/Time (MST), AirTemp, RH, Dewpoint ,AvgWindSpeed, GustWindSpeed, WindDirection, PrecipType, PrecipIntensity, PrecipAccumulation, PrecipRate
12/07/2017 18:28, 26, 76, 20 ,12, 15, W, None, None, ,  
12/07/2017 18:24, 28, 74, 20 ,12, 15, W, None, None, ,  
12/07/2017 18:18, 28, 75, 21 ,12, 12, SW, None, None, ,  
12/07/2017 18:09, 28, 74, 21 ,11, 13, W, None, None, ,  
12/07/2017 18:08, 28, 74, 21 ,11, 13, SW, None, None, ,  
12/07/2017 17:58, 28, 75, 22 ,12, 13, SW, None, None, ,  
12/07/2017 17:54, 28, 75, 21 ,11, 13, SW, None, None, ,  
12/07/2017 17:48, 27, 76, 21 ,12, 12, SW, None, None, ,  
12/07/2017 17:39, 28, 76, 21 ,11, 12, SW, None, None, ,  
12/07/2017 17:38, 28, 76, 21 ,11, 12, SW, None, None, ,  
12/07/2017 17:28, 28, 75, 21 ,9, 12, SW, None, None, ,  
12/07/2017 17:24, 28, 75, 21 ,8, 13, W, None, None, ,  
12/07/2017 17:17, 29, 75, 22 ,11, 13, W, None, None, ,  
12/07/2017 17:08, 29, 74, 22 ,12, 14, W, None, None, ,  
12/07/2017 17:07, 29, 73, 22 ,12, 14, W, None, None, ,  
12/07/2017 16:57, 30, 73, 22 ,14, 16, W, None, None, ,  
12/07/2017 16:53, 30, 72, 22 ,12, 19, W, None, None, ,  
12/07/2017 16:47, 31, 70, 23 ,15, 19, W, None, None, ,  
12/07/2017 16:39, 31, 70, 23 ,16, 21, W, None, None, ,  
12/07/2017 16:37, 32, 69, 23 ,17, 21, W, None, None, ,  
12/07/2017 16:27, 32, 69, 23 ,18, 21, W, None, None, ,  
12/07/2017 16:24, 32, 69, 23 ,18, 22, W, None, None, ,  
12/07/2017 16:17, 33, 66, 23 ,20, 27, W, None, None, ,  
12/07/2017 16:09, 34, 65, 24 ,24, 30, W, None, None, ,  
12/07/2017 16:07, 34, 65, 24 ,24, 30, W, None, None, ,  
12/07/2017 15:57, 34, 66, 24 ,23, 26, W, None, None, ,  
12/07/2017 15:54, 33, 67, 24 ,21, 29, W, None, None, ,  
12/07/2017 15:47, 33, 68, 24 ,22, 29, W, None, None, ,  
12/07/2017 15:39, 33, 69, 24 ,21, 29, W, None, None, ,  
12/07/2017 15:37, 33, 68, 24 ,22, 29, W, None, None, ,  
12/07/2017 15:27, 33, 68, 24 ,22, 29, W, None, None, ,  
12/07/2017 15:24, 33, 69, 24 ,22, 27, W, None, None, ,  
12/07/2017 15:17, 31, 73, 24 ,19, 23, W, None, None, ,  
12/07/2017 15:09, 31, 75, 24 ,18, 21, W, None, None, ,  
12/07/2017 15:07, 31, 75, 24 ,17, 21, W, None, None, ,  
12/07/2017 14:57, 31, 75, 24 ,16, 21, W, None, None, ,  
12/07/2017 14:54, 31, 75, 24 ,16, 20, W, None, None, ,  
12/07/2017 14:47, 31, 74, 24 ,17, 21, W, None, None, ,  
12/07/2017 14:39, 32, 73, 24 ,18, 23, W, None, None, ,  
12/07/2017 14:37, 32, 73, 24 ,17, 23, W, None, None, ,  
12/07/2017 14:27, 32, 73, 24 ,19, 24, W, None, None, ,  
12/07/2017 14:24, 32, 74, 24 ,19, 24, W, None, None, ,  
12/07/2017 14:17, 32, 73, 25 ,20, 25, W, None, None, ,  
12/07/2017 14:09, 32, 73, 24 ,20, 24, W, None, None, ,  
12/07/2017 14:07, 32, 73, 24 ,20, 24, W, None, None, ,  
12/07/2017 13:57, 32, 74, 24 ,19, 23, W, None, None, ,  
12/07/2017 13:54, 32, 74, 24 ,18, 23, W, None, None, ,  
12/07/2017 13:47, 31, 75, 24 ,17, 20, W, None, None, ,  
12/07/2017 13:39, 31, 76, 24 ,15, 19, SW, None, None, ,  
12/07/2017 13:37, 30, 76, 24 ,16, 19, W, None, None, ,  
12/07/2017 13:27, 30, 76, 24 ,15, 19, SW, None, None, ,  
12/07/2017 13:24, 30, 76, 23 ,16, 20, SW, None, None, ,  
12/07/2017 13:17, 30, 75, 23 ,17, 21, SW, None, None, ,  
12/07/2017 13:09, 30, 77, 24 ,14, 24, SW, None, None, ,  
12/07/2017 13:07, 30, 75, 23 ,17, 24, W, None, None, ,  
12/07/2017 12:57, 30, 75, 23 ,19, 24, W, None, None, ,  
12/07/2017 12:53, 30, 75, 23 ,18, 24, W, None, None, ,  
12/07/2017 12:47, 29, 74, 22 ,21, 24, W, None, None, ,  
12/07/2017 12:38, 29, 75, 22 ,19, 24, W, None, None, ,  
12/07/2017 12:37, 29, 75, 22 ,21, 24, W, None, None, ,  
12/07/2017 12:27, 28, 76, 22 ,20, 26, W, None, None, ,  
12/07/2017 12:24, 28, 76, 22 ,19, 26, W, None, None, ,  
12/07/2017 12:17, 28, 75, 21 ,19, 25, W, None, None, ,  
12/07/2017 12:08, 28, 75, 21 ,21, 27, W, None, None, ,  
12/07/2017 12:07, 28, 75, 21 ,21, 27, W, None, None, ,  
12/07/2017 11:57, 28, 74, 20 ,21, 26, W, None, None, ,  
12/07/2017 11:54, 28, 74, 20 ,21, 26, W, None, None, ,  
12/07/2017 11:46, 27, 74, 20 ,19, 22, W, None, None, ,  
12/07/2017 11:38, 27, 74, 20 ,18, 24, W, None, None, ,  
12/07/2017 11:36, 27, 74, 20 ,17, 24, W, None, None, ,  
12/07/2017 11:26, 27, 73, 20 ,19, 22, W, None, None, ,  
12/07/2017 11:23, 28, 72, 20 ,17, 23, W, None, None, ,  
12/07/2017 11:16, 28, 72, 20 ,20, 23, W, None, None, ,  
12/07/2017 11:09, 27, 73, 20 ,19, 24, W, None, None, ,  
12/07/2017 11:06, 27, 73, 20 ,16, 24, W, None, None, ,  
12/07/2017 10:56, 27, 73, 20 ,17, 21, W, None, None, ,  
12/07/2017 10:53, 27, 73, 20 ,19, 22, W, None, None, ,  
12/07/2017 10:46, 27, 72, 19 ,19, 24, W, None, None, ,  
12/07/2017 10:38, 27, 72, 19 ,20, 25, SW, None, None, ,  
12/07/2017 10:36, 27, 71, 19 ,20, 25, SW, None, None, ,  
12/07/2017 10:26, 27, 69, 18 ,21, 25, SW, None, None, ,  
12/07/2017 10:23, 27, 70, 18 ,20, 24, SW, None, None, ,  
12/07/2017 10:16, 27, 69, 18 ,22, 24, SW, None, None, ,  
12/07/2017 10:08, 27, 70, 18 ,19, 22, SW, None, None, ,  
12/07/2017 10:06, 26, 72, 18 ,17, 23, SW, None, None, ,  
12/07/2017 09:56, 26, 70, 18 ,19, 24, SW, None, None, ,  
12/07/2017 09:54, 26, 70, 18 ,18, 24, SW, None, None, ,  
12/07/2017 09:46, 26, 71, 18 ,19, 22, SW, None, None, ,  
12/07/2017 09:38, 25, 72, 17 ,16, 20, SW, None, None, ,  
12/07/2017 09:36, 25, 73, 17 ,15, 20, SW, None, None, ,  
12/07/2017 09:26, 23, 75, 17 ,15, 18, SW, None, None, ,  
12/07/2017 09:23, 23, 76, 17 ,14, 17, SW, None, None, ,  
12/07/2017 09:16, 22, 76, 16 ,10, 16, SW, None, None, ,  
12/07/2017 09:08, 22, 76, 16 ,12, 16, W, None, None, ,  
12/07/2017 09:06, 22, 77, 15 ,11, 14, W, None, None, ,  
12/07/2017 08:56, 22, 76, 15 ,12, 16, W, None, None, ,  
12/07/2017 08:53, 22, 76, 15 ,12, 16, W, None, None, ,  
12/07/2017 08:46, 22, 75, 15 ,13, 15, SW, None, None, ,  
12/07/2017 08:38, 22, 76, 15 ,10, 14, SW, None, None, ,  
12/07/2017 08:36, 22, 76, 15 ,11, 14, SW, None, None, ,  
12/07/2017 08:26, 21, 77, 15 ,11, 13, SW, None, None, ,  
12/07/2017 08:23, 21, 78, 15 ,11, 12, SW, None, None, ,  
12/07/2017 08:16, 21, 78, 15 ,11, 13, SW, None, None, ,  
12/07/2017 08:08, 20, 79, 14 ,10, 12, SW, None, None, ,  
12/07/2017 08:06, 20, 78, 14 ,9, 12, W, None, None, ,  
12/07/2017 07:56, 20, 77, 14 ,9, 11, SW, None, None, ,  
12/07/2017 07:53, 20, 77, 14 ,9, 11, SW, None, None, ,  
12/07/2017 07:46, 20, 76, 14 ,9, 12, SW, None, None, ,  
12/07/2017 07:38, 20, 77, 14 ,9, 11, SW, None, None, ,  
12/07/2017 07:36, 20, 77, 14 ,9, 11, SW, None, None, ,  
12/07/2017 07:26, 20, 79, 15 ,9, 11, SW, None, None, ,  
12/07/2017 07:23, 20, 80, 14 ,9, 10, SW, None, None, ,  
12/07/2017 07:16, 19, 81, 14 ,7, 10, SW, None, None, ,  
12/07/2017 07:08, 19, 81, 14 ,9, 11, SW, None, None, ,  
12/07/2017 07:06, 19, 81, 14 ,9, 11, SW, None, None, ,  
12/07/2017 06:56, 19, 82, 14 ,9, 11, SW, None, None, ,  
12/07/2017 06:53, 19, 82, 14 ,10, 11, SW, None, None, ,  
12/07/2017 06:46, 19, 81, 14 ,9, 12, SW, None, None, ,  
12/07/2017 06:39, 19, 82, 15 ,9, 12, W, None, None, ,  
12/07/2017 06:36, 19, 83, 15 ,9, 12, W, None, None, ,  
12/07/2017 06:26, 20, 81, 15 ,11, 15, SW, None, None, ,  
12/07/2017 06:24, 20, 81, 15 ,11, 15, SW, None, None, ,  
12/07/2017 06:15, 20, 83, 16 ,12, 13, SW, None, None, ,  
12/07/2017 06:09, 20, 83, 16 ,12, 14, SW, None, None, ,  
12/07/2017 06:05, 20, 84, 16 ,12, 14, SW, None, None, ,  
12/07/2017 05:55, 20, 85, 16 ,12, 15, SW, None, None, ,  
12/07/2017 05:53, 20, 84, 16 ,12, 15, SW, None, None, ,  
12/07/2017 05:45, 20, 86, 16 ,13, 15, SW, None, None, ,  
12/07/2017 05:39, 19, 87, 16 ,13, 15, SW, None, None, ,  
12/07/2017 05:35, 19, 87, 15 ,12, 14, SW, None, None, ,  
12/07/2017 05:25, 17, 90, 14 ,12, 13, SW, None, None, ,  
12/07/2017 05:24, 16, 90, 14 ,12, 13, SW, None, None, ,  
12/07/2017 05:15, 16, 90, 13 ,10, 13, W, None, None, ,  
12/07/2017 05:09, 15, 90, 13 ,11, 13, W, None, None, ,  
12/07/2017 05:05, 15, 90, 13 ,10, 12, W, None, None, ,  
12/07/2017 04:55, 14, 90, 12 ,10, 12, W, None, None, ,  
12/07/2017 04:54, 15, 90, 12 ,10, 12, W, None, None, ,  
12/07/2017 04:45, 15, 91, 13 ,11, 12, W, None, None, ,  
12/07/2017 04:35, 13, 92, 12 ,10, 11, W, None, None, ,  
12/07/2017 04:25, 13, 91, 11 ,9, 12, W, None, None, ,  
12/07/2017 04:24, 13, 91, 11 ,9, 12, W, None, None, ,  
12/07/2017 04:15, 13, 91, 11 ,12, 13, W, None, None, ,  
12/07/2017 04:09, 12, 92, 10 ,12, 13, W, None, None, ,  
12/07/2017 04:05, 12, 90, 10 ,12, 13, W, None, None, ,  
12/07/2017 03:55, 13, 90, 11 ,12, 16, SW, None, None, ,  
12/07/2017 03:53, 13, 91, 11 ,13, 16, SW, None, None, ,  
12/07/2017 03:45, 14, 90, 11 ,15, 17, SW, None, None, ,  
12/07/2017 03:39, 14, 90, 12 ,15, 17, SW, None, None, ,  
12/07/2017 03:35, 14, 92, 12 ,16, 17, SW, None, None, ,  
12/07/2017 03:25, 13, 91, 10 ,14, 16, SW, None, None, ,  
12/07/2017 03:23, 13, 92, 11 ,13, 16, W, None, None, ,  
12/07/2017 03:15, 13, 92, 11 ,13, 14, W, None, None, ,  
12/07/2017 03:09, 12, 92, 10 ,12, 15, SW, None, None, ,  
12/07/2017 03:05, 13, 89, 10 ,11, 15, W, None, None, ,  
12/07/2017 02:55, 14, 92, 12 ,14, 16, SW, None, None, ,  
12/07/2017 02:53, 14, 91, 12 ,14, 16, SW, None, None, ,  
12/07/2017 02:45, 14, 91, 12 ,13, 17, W, None, None, ,  
12/07/2017 02:38, 14, 92, 12 ,16, 18, SW, None, None, ,  
12/07/2017 02:35, 14, 92, 12 ,16, 19, SW, None, None, ,  
12/07/2017 02:25, 14, 91, 12 ,18, 20, SW, None, None, ,  
12/07/2017 02:23, 14, 91, 12 ,18, 20, SW, None, None, ,  
12/07/2017 02:15, 14, 91, 12 ,17, 19, SW, None, None, ,  
12/07/2017 02:09, 15, 90, 13 ,16, 17, SW, None, None, ,  
12/07/2017 02:05, 15, 90, 13 ,16, 17, SW, None, None, ,  
12/07/2017 01:55, 17, 89, 15 ,16, 18, SW, None, None, ,  
12/07/2017 01:54, 17, 89, 15 ,16, 18, SW, None, None, ,  
12/07/2017 01:45, 17, 89, 14 ,14, 17, W, None, None, ,  
12/07/2017 01:39, 17, 89, 15 ,14, 17, SW, None, None, ,  
12/07/2017 01:35, 17, 90, 15 ,13, 17, W, None, None, ,  
12/07/2017 01:25, 18, 90, 16 ,15, 17, W, None, None, ,  
12/07/2017 01:24, 18, 90, 16 ,14, 17, W, None, None, ,  
12/07/2017 01:15, 18, 90, 16 ,14, 16, W, None, None, ,  
12/07/2017 01:09, 18, 90, 16 ,15, 16, W, None, None, ,  
12/07/2017 01:05, 18, 90, 16 ,12, 15, W, None, None, ,  
12/07/2017 00:55, 18, 90, 15 ,13, 14, W, None, None, ,  
12/07/2017 00:53, 18, 90, 15 ,12, 15, W, None, None, ,  
12/07/2017 00:45, 18, 90, 15 ,13, 15, W, None, None, ,  
12/07/2017 00:39, 17, 90, 15 ,13, 15, W, None, None, ,  
12/07/2017 00:34, 17, 90, 15 ,12, 14, W, None, None, ,  
12/07/2017 00:24, 17, 89, 15 ,11, 14, W, None, None, ,  
12/07/2017 00:23, 17, 89, 15 ,11, 14, W, None, None, ,  
12/07/2017 00:14, 17, 89, 15 ,12, 14, W, None, None, ,  
12/07/2017 00:09, 17, 89, 15 ,11, 14, SW, None, None, ,  
12/07/2017 00:04, 17, 88, 15 ,9, 12, SW, None, None, ,  
12/06/2017 23:54, 17, 89, 15 ,9, 12, SW, None, None, ,  
12/06/2017 23:54, 17, 89, 15 ,9, 12, SW, None, None, ,  
12/06/2017 23:44, 17, 90, 15 ,9, 14, SW, None, None, ,  
12/06/2017 23:39, 17, 89, 14 ,11, 14, SW, None, None, ,  
12/06/2017 23:34, 17, 89, 14 ,11, 13, SW, None, None, ,  
12/06/2017 23:24, 17, 90, 14 ,12, 14, SW, None, None, ,  
12/06/2017 23:14, 16, 89, 14 ,9, 12, SW, None, None, ,  
12/06/2017 23:09, 16, 89, 14 ,9, 11, SW, None, None, ,  
12/06/2017 23:04, 16, 89, 14 ,9, 12, SW, None, None, ,  
12/06/2017 22:54, 16, 89, 13 ,9, 11, W, None, None, ,  
12/06/2017 22:54, 16, 89, 13 ,9, 11, W, None, None, ,  
12/06/2017 22:44, 16, 90, 13 ,10, 12, SW, None, None, ,  
12/06/2017 22:39, 15, 90, 13 ,9, 11, SW, None, None, ,  
12/06/2017 22:34, 15, 90, 13 ,9, 11, SW, None, None, ,  
12/06/2017 22:24, 16, 89, 13 ,9, 11, SW, None, None, ,  
12/06/2017 22:24, 16, 89, 13 ,9, 11, SW, None, None, ,  
12/06/2017 22:14, 15, 89, 13 ,11, 12, SW, None, None, ,  
12/06/2017 22:10, 15, 89, 13 ,9, 12, SW, None, None, ,  
12/06/2017 22:04, 15, 89, 12 ,9, 11, SW, None, None, ,  
12/06/2017 21:54, 15, 88, 12 ,9, 12, W, None, None, ,  
12/06/2017 21:54, 15, 88, 12 ,9, 12, W, None, None, ,  
12/06/2017 21:44, 15, 89, 12 ,9, 13, W, None, None, ,  
12/06/2017 21:39, 14, 89, 12 ,11, 12, W, None, None, ,  
12/06/2017 21:34, 14, 90, 12 ,9, 11, W, None, None, ,  
12/06/2017 21:24, 14, 90, 11 ,9, 12, W, None, None, ,  
12/06/2017 21:24, 14, 90, 11 ,9, 12, W, None, None, ,  
12/06/2017 21:14, 14, 89, 11 ,11, 13, W, None, None, ,  
12/06/2017 21:09, 14, 89, 11 ,12, 14, W, None, None, ,  
12/06/2017 21:04, 13, 89, 11 ,12, 14, W, None, None, ,  
12/06/2017 20:54, 13, 89, 11 ,12, 16, W, None, None, ,  
12/06/2017 20:54, 13, 89, 11 ,12, 16, W, None, None, ,  
12/06/2017 20:44, 13, 88, 11 ,14, 17, W, None, None, ,  
12/06/2017 20:39, 13, 88, 11 ,14, 18, W, None, None, ,  
12/06/2017 20:34, 13, 89, 11 ,16, 18, W, None, None, ,  
12/06/2017 20:25, 13, 89, 11 ,14, 17, SW, None, None, ,  
12/06/2017 20:24, 13, 89, 11 ,15, 17, SW, None, None, ,  
12/06/2017 20:14, 13, 90, 11 ,15, 17, W, None, None, ,  
12/06/2017 20:09, 13, 91, 10 ,12, 13, W, None, None, ,  
12/06/2017 20:04, 12, 90, 10 ,11, 13, W, None, None, ,  
12/06/2017 19:54, 11, 90, 9 ,12, 13, W, None, None, ,  
12/06/2017 19:53, 11, 90, 9 ,12, 13, W, None, None, ,  
12/06/2017 19:44, 11, 89, 9 ,10, 14, W, None, None, ,  
12/06/2017 19:38, 11, 90, 9 ,12, 14, W, None, None, ,  
12/06/2017 19:34, 11, 90, 8 ,11, 13, W, None, None, ,  
12/06/2017 19:24, 10, 90, 8 ,10, 11, W, None, None, ,  
12/06/2017 19:24, 10, 90, 8 ,10, 11, W, None, None, ,  
12/06/2017 19:14, 9, 90, 7 ,9, 10, W, None, None, ,  
12/06/2017 19:09, 9, 90, 7 ,9, 9, W, None, None, ,  
12/06/2017 19:04, 9, 89, 6 ,9, 9, W, None, None, ,  
12/06/2017 18:54, 8, 89, 6 ,8, 10, W, None, None, ,  
12/06/2017 18:53, 8, 89, 6 ,8, 10, W, None, None, ,  
12/06/2017 18:43, 8, 88, 6 ,7, 12, W, None, None, ,  
12/06/2017 18:38, 9, 90, 6 ,9, 12, W, None, None, ,  
12/06/2017 18:33, 8, 90, 6 ,10, 13, W, None, None, ,  
Change End Date:

Copyright © 1998-2015 Vaisala, Inc.
All Rights Reserved
Send comments about the data to:
SCAN Web ® is a registered trademark of Vaisala, Inc.
SCAN Web Version 6.0